{"data":{"norad_id":52478,"epoch":"2026-05-25T04:55:47.607168Z","epoch_age_seconds":57040,"freshness":"FRESH","line1":"1 52478U 22049AD  26145.20541212  .00000100  00000+0  24362-4 0  9999","line2":"2 52478  53.2163  75.6258 0001582  87.4075 272.7098 15.08838233225047","mean_motion":15.08838233,"eccentricity":0.0001582,"inclination_deg":53.2163,"raan_deg":75.6258,"arg_perigee_deg":87.4075,"mean_anomaly_deg":272.7098,"bstar":2.4362e-5,"rev_number":22504,"period_min":95.437666444657,"perigee_km":538.6543804495,"apogee_km":540.84319951345,"semimajor_km":6917.8857899815,"source":"CELESTRAK","updated_at":"2026-05-25T13:38:17.154946Z"}}